CAPE
2140 2038 1660 1569 1606 1843 2168 2375 2437 2513 2502 2594 2813 2805 2696 2668 2788 2571 2709 2585 2211 2292 2162 2026 1835 1770 1771 1963 1671 1846 1696 1408 1415 1454 1562 1975 1747 1808 2083 2105 1991 2120 2178 2169 2068 2160 2042 2073 2007 1903 1893 1686 1790 1843 1818 1884 1793 1794 1722 1622 1523 1478 1473 1366 1492 1480 1603 1872 1845 1825 1797 1717 1706 1878 1734 1752 1709 1682 1514 1056 887 1512 1508 1088 767
1966 1723 1572 1730 2020 2130 2272 2375 2504 2539 2432 2667 2710 2605 2586 2582 2602 2615 2715 2594 2209 2359 2158 1884 1582 1637 1789 1771 1694 1625 1884 1727 1698 1682 1743 1665 2095 2191 2224 1856 2079 2116 2076 2218 2156 2111 2024 1760 1896 1889 1779 1691 1580 1801 1669 1757 1603 1562 1624 1554 1542 1546 1605 1718 1700 1721 1802 1925 1820 1819 1859 1763 1720 1883 1700 1614 1691 1633 1593 1268 891 1224 1486 1141 782
1895 1706 1480 1590 2001 2338 2292 2414 2367 2439 2612 2450 2452 2735 2716 2753 2974 2748 2869 2797 2381 2459 2205 1936 1904 1584 1618 1488 1544 1654 1685 1673 1426 1435 1396 1480 1813 2081 2187 2298 2270 2104 2276 2177 2176 2168 1985 2011 1636 1803 1852 1888 1738 1707 1661 1468 1571 1522 1390 1439 1671 1760 1792 1825 1851 1820 2024 2061 1959 1713 1824 1761 1735 1738 1736 1546 1590 1598 1346 1280 1080 958 1391 1148 1023
2072 2047 1922 1998 2094 2255 2390 2433 2344 2505 2516 2590 2778 2987 3010 3191 3209 3438 3401 2742 2463 2377 2401 2096 1906 1660 1735 1646 1896 1964 1973 1962 1373 1211 1305 1513 1626 1616 1830 2471 2287 2618 2221 2288 2114 1957 2102 1914 1871 1899 1954 1963 1908 1814 1777 1776 1764 1782 1833 1671 1866 1942 1937 1877 1904 2071 2040 2018 1866 1833 1911 1798 1629 1685 1660 1593 1412 1440 1283 1302 1162 1098 1097 1112 1117
2429 2463 2267 2264 2372 2350 2252 2444 2495 2488 2649 2796 3309 3216 2881 2693 2858 2968 2633 2411 2328 2400 2448 1997 2099 1970 1530 1579 1542 1701 1884 2023 1960 1633 1490 1512 1500 1486 1566 1650 2346 2592 2479 2508 2270 2301 1959 1909 2023 1914 1968 1821 2079 2048 2009 1960 1916 1899 2020 2010 1962 1968 1922 1883 1984 2026 1998 1963 1816 1899 1900 1707 1701 1720 1647 1527 1420 1328 1363 1373 1255 1234 1192 1096 1086
2460 2901 2431 2170 2324 2351 2310 2322 2488 2689 3047 3285 2731 2773 2643 2781 2442 2243 2180 2176 2087 2226 2168 2079 1936 1853 1538 1344 1412 1510 1540 1498 1652 1569 1458 1376 1408 1551 1596 1643 1728 1854 2703 2654 2526 2460 2448 2381 2387 2431 2423 2328 2199 2225 2214 2092 1898 2086 2062 2065 1973 2068 1994 2011 1999 2030 1958 1981 1939 1922 1869 1792 1702 1688 1608 1476 1384 1417 1343 1331 1284 1307 1238 1231 1153
3011 2861 2791 2287 1884 2081 2350 2477 2838 3025 2950 3050 2927 2699 2722 2612 2435 2200 2241 2065 2036 1806 2131 2020 1860 1538 1544 1522 1371 1552 1556 1630 1763 1628 1523 1638 1731 1514 1529 1493 1557 1642 1635 1869 3133 2719 2506 2392 2223 2654 2294 2444 2279 2307 2209 2226 2036 2045 2114 2097 2142 2076 2019 2014 2085 2098 2150 2025 1948 1897 1863 1762 1761 1722 1531 1492 1421 1331 1370 1405 1404 1239 1183 1182 1230
2999 3047 2609 2392 2137 2180 2649 2927 3132 3038 3194 3190 3156 2697 2882 2888 2716 2453 2475 2207 2022 1517 1780 2028 1817 1481 1455 1453 1456 1528 1623 1757 1752 1625 1635 1679 1542 1481 1330 1306 1400 1429 1723 1540 1700 3188 2746 2645 2447 2290 2478 2558 2489 2344 2378 2257 2258 2113 2135 2135 2130 2064 2108 2139 2137 2237 2154 2064 2010 1936 1825 1801 1796 1856 1587 1563 1545 1441 1384 1368 1359 1325 1315 1299 1323
4099 3364 2865 2423 2274 2269 2544 2858 2984 2998 3173 3018 2849 2752 3009 2665 2824 2458 2826 2577 2006 1503 1494 1644 1622 1624 1399 1290 1348 1474 1669 1692 1662 1686 1640 1708 1600 1299 1214 1267 1356 1595 1996 1483 1551 1650 2818 2726 2504 2476 2477 2539 2526 2535 2250 2300 2169 2231 2152 2121 2133 2100 2155 2158 2098 2109 2086 2123 2051 1944 1942 1969 1960 1926 1912 1883 1802 1676 1517 1473 1482 1494 1495 1440 1350
4234 3330 3461 2547 2558 2596 2782 3142 3012 3153 3241 2996 2996 2826 2836 2854 3229 2897 2520 2614 2344 2040 1449 1277 1263 1263 1248 1245 1299 1498 1487 1597 1484 1486 1468 1394 1406 1372 1200 1123 1168 1100 1129 1288 1168 1447 1950 3083 2468 2785 2620 2816 2816 2720 2655 2489 2503 2538 2478 2387 2271 2155 2097 2131 2185 2200 2214 2163 2137 2166 2175 2194 2191 2184 2130 2100 2041 1943 1829 1713 1662 1626 1634 1620 1562
4104 3280 2984 2543 2487 2679 2917 3295 2981 3232 3376 2871 2789 2913 3121 2855 3114 3216 2798 2263 2675 2360 2021 1424 1264 1136 1188 1241 1146 1516 1406 1271 1290 1254 1291 1080 1088 1181 1040 1198 1211 1173 1431 1365 1261 1521 1782 1921 2453 2509 3430 2584 2960 2874 2758 2763 2818 2776 2805 2722 2626 2506 2444 2408 2352 2403 2480 2533 2559 2526 2535 2514 2502 2436 2416 2411 2392 2268 2210 2216 2139 2028 1848 1722 1607
3501 3542 2914 2813 2606 2737 3080 3185 3106 3156 3078 2856 2806 3014 3642 3573 3074 2844 2760 2354 2184 2218 2061 1435 1240 1042 1031 991 1162 1193 1319 1233 1127 994 1053 1142 1214 1260 1028 1011 1103 1038 1096 1242 1085 1203 1604 2278 2422 2382 2387 3666 2743 2749 2558 2917 2958 2925 2850 2840 2869 2854 2735 2730 2805 2789 2820 2837 2882 2908 2900 2882 2794 2747 2699 2685 2645 2575 2528 2522 2468 2355 2177 1966 1820
3044 3292 3038 2627 2945 3273 3586 3140 2961 3002 3160 3134 2941 3126 3014 3201 2783 2732 2768 2399 2631 1966 1479 1354 1396 1136 939 842 862 865 891 997 968 858 888 866 987 1054 1069 941 912 1096 1070 939 1201 1369 1715 2268 2301 2300 2363 2675 3817 2684 2858 2922 2886 2722 2717 2916 3067 3041 2998 3104 3169 3242 3281 3389 3384 3364 3391 3370 3266 3177 3114 3028 2974 2911 2834 2716 2663 2547 2382 2225 2048
2655 3212 3264 3119 2933 3065 3329 3669 3279 3350 3298 2958 3200 3091 3353 3539 3100 3267 1993 2730 2878 2029 1450 1218 1164 936 823 534 606 683 692 749 818 789 848 820 863 910 792 640 813 1003 1042 1311 1564 1475 1571 1745 2007 2111 2119 2489 2495 2758 4402 4282 3807 2794 3140 3077 3094 3134 3174 3138 3163 3251 3380 3410 3467 3412 3512 3486 3400 3463 3421 3394 3285 3213 3076 2938 2838 2738 2636 2498 2408
2643 2790 3259 2797 2936 3156 3141 3337 3376 3318 3404 3487 3286 3335 3333 3176 3368 3160 2824 2275 2623 2136 2045 1434 1036 803 873 748 479 604 759 760 665 629 690 729 741 566 481 708 818 950 1087 1148 1102 1366 1202 1305 1773 2176 2547 2664 2632 2635 2916 3240 2722 3865 2877 2924 2877 3030 3145 3320 3484 3586 3718 3944 4037 4021 3902 3777 3587 3588 3644 3587 3496 3441 3333 3253 3059 2935 2814 2711 2615
2523 2736 2884 2903 3210 3037 2933 3051 3618 3675 3642 3561 3238 2815 2997 2880 2804 3031 2844 2518 2270 2290 1650 1323 1318 1034 829 461 459 485 614 706 894 562 416 417 611 440 449 585 675 892 1107 1184 797 1287 1350 1657 2060 2755 3182 3164 2733 2610 2648 2585 3483 3748 3597 3366 2870 2593 2841 3152 3373 3669 3825 3964 3936 4100 4218 4165 4086 3958 3874 3810 3757 3717 3617 3386 3204 3044 2918 2828 2792
2650 2770 2823 3187 3205 3224 3283 3221 3726 3707 3500 3250 3128 3018 3026 3137 2779 2962 3266 2582 1939 2180 1885 1466 1210 1277 1126 889 430 600 720 610 719 584 636 532 298 358 388 376 588 837 984 970 1073 1200 1386 1625 2064 2498 3188 3525 3811 3357 2814 2617 2996 3962 4551 4301 3821 3329 3244 3194 3174 3384 3646 3758 3886 4031 3886 3734 3669 3759 3942 4014 3903 3719 3554 3399 3271 3126 3005 2986 2975
3004 2967 3004 3116 2976 3263 3370 3406 3678 3631 3378 3296 3228 2907 2703 3087 2850 3026 2674 2427 3332 1951 2116 1364 1715 1641 1301 963 1527 1572 1428 983 690 751 641 336 320 294 523 445 455 734 1054 1167 1190 1423 1136 1301 1881 2286 2404 2629 2611 2546 2494 2640 3456 3997 4225 3755 4585 3695 3146 2964 3079 3295 3466 3604 3687 3819 3918 3687 3574 3611 3654 3760 3878 3788 3666 3475 3273 3115 2992 2915 2888
2805 3002 3126 3223 3285 3420 3755 3576 3572 3572 3470 3760 3428 2709 2496 2844 3063 2825 2965 3491 2905 3156 2308 1926 2180 2143 1772 1557 1518 1612 1227 1311 1022 802 681 633 485 387 434 467 460 591 721 638 711 879 838 918 1028 1181 1538 1789 2131 2379 2548 2472 2872 2758 3166 3092 2867 3160 3064 2820 2845 2773 2762 2982 3209 3432 3617 3801 3852 3847 3816 3699 3858 3875 3741 3603 3393 3230 3142 3083 3041
2830 3036 3253 3228 3274 3605 3541 3571 3421 3354 3189 3454 3317 3040 3104 3357 3165 3611 3613 3623 3971 3298 2440 2091 2424 2850 2091 1835 1685 1372 1317 1030 921 768 853 659 570 347 478 524 584 360 445 350 496 590 958 1284 1326 1311 1521 1848 2187 2452 2194 2074 3082 3567 3589 3756 3317 2773 2384 2125 2085 2297 2428 2674 2916 3113 3395 3558 3695 3751 3721 3833 3930 3962 3909 3737 3630 3578 3591 3638 3597
2822 3074 2967 3161 3167 3595 3636 3520 3568 3542 3075 3478 3150 3180 3339 3848 3868 3612 3421 3670 3439 3420 3041 3530 2337 2167 1910 2122 1474 1646 1181 955 996 1120 914 655 504 383 454 478 618 570 566 703 724 771 933 1033 916 925 1299 1870 2514 3059 2480 2224 2814 3815 3378 2170 1941 2151 2128 1920 1830 2077 2457 2760 2908 3022 3120 3243 3308 3400 3485 3616 3704 3798 3830 3848 3809 3688 3500 3491 3495
2639 2837 3163 3027 3223 3293 3464 3331 3325 3233 2731 2988 3216 3445 3627 4155 4012 3880 3731 3650 3760 3450 3395 3299 2708 2561 1681 2609 2224 1915 1628 1004 812 754 751 929 510 558 426 526 761 605 824 709 984 842 1084 1126 1614 1282 1378 1890 2159 2800 3279 3553 3704 2595 2354 1276 1921 1959 1958 1990 2219 2441 2623 2710 2815 2885 2958 3046 3139 3232 3294 3333 3383 3391 3323 3244 3165 3093 3032 3149 3186
2504 2537 2782 2923 3170 3104 3133 3211 3136 3350 2758 3289 3340 2986 2743 3049 3311 3733 3571 4123 3349 3657 3104 3135 3098 2501 2212 2182 2364 1739 2117 1475 1324 1305 990 823 792 644 516 647 714 751 700 960 1074 1034 1169 1256 1320 1459 2192 2328 2770 2866 3108 3471 2592 2170 1738 1875 1909 2056 2267 2698 2843 2963 3098 3132 3177 3220 3303 3411 3507 3560 3551 3470 3313 3148 2992 2895 2808 2840 2908 2858 2894
3012 2947 2348 2565 2981 2884 2971 3182 3324 3407 3243 3151 3271 3014 2592 2756 3240 3796 3899 3810 3973 3457 3542 3410 3262 3244 2548 2138 1764 1685 1648 1570 1263 1620 1313 1555 1250 916 726 664 903 724 629 1135 1080 925 1176 1446 1625 2023 2403 2970 3300 3821 3718 4116 3322 2071 2555 2382 2424 2673 2905 3041 3161 3247 3300 3334 3346 3393 3473 3577 3579 3452 3200 2961 2812 2657 2536 2561 2639 2685 2642 2645 2522
2659 2806 2810 2516 2897 2991 3015 3304 3592 3484 3458 3607 3882 3647 3324 3224 3395 3314 3580 4111 3929 3937 3584 3327 2928 2971 2324 2282 1908 1694 1936 1940 1435 1380 1368 1419 1861 1185 1146 1037 511 850 870 1031 1190 958 1204 1625 2146 2350 2718 3168 3753 4017 3546 3174 3314 2482 2276 3084 3040 2846 3031 3142 3217 3266 3286 3350 3458 3556 3583 3432 3035 2694 2551 2423 2286 2225 2285 2250 2380 2426 2428 2452 2230
2293 2454 2558 2647 2764 2860 2927 3195 3754 3644 3395 3861 4309 4207 4524 3763 3634 3748 3179 3382 3915 3770 3527 3278 3238 2967 2786 2664 2116 1921 2090 2072 1912 1441 1225 1137 1260 1384 1675 1388 784 734 715 1417 804 1204 1106 1629 2088 2594 2949 3145 3505 3730 3416 2931 3350 2680 2785 3506 4488 3380 3272 3060 3166 3213 3291 3407 3553 3373 3023 2678 2503 2436 2297 1972 2022 2262 2222 2085 2080 1948 2001 1646 1402
1920 2518 2475 2677 2916 3000 2846 2774 3353 3829 3657 3651 3791 4072 4792 3913 3998 4099 3474 3549 3951 3870 3463 2986 3001 3043 3264 2826 2669 2472 2422 2563 2077 1399 1587 1395 1328 1785 1962 1513 998 794 870 940 1126 1118 1313 1669 1600 2110 2863 3652 3551 3890 3166 3671 3205 2816 3320 5618 4099 4225 3158 3012 3139 3257 3371 3414 3073 2848 2633 2513 2473 2404 2034 1699 2005 2251 2132 1731 1456 1253 1060 836 662
2292 2505 2774 2651 2680 2622 3065 2776 3141 3343 3396 3536 3593 3490 3799 3775 4026 3814 3633 3059 3489 3768 3696 3241 2885 3131 3310 3555 3060 2696 2809 2528 2621 2416 2192 2241 2073 2281 2414 1753 1610 1124 1004 1026 1130 1579 743 1201 1759 1937 3114 3742 3854 3720 3306 3651 3297 3140 3911 3866 3963 4736 2990 3104 3280 3269 3177 2985 2805 2614 2565 2570 2516 2069 1655 1667 1677 1621 1464 1503 1496 1269 819 684 459
2291 2469 2701 2629 2509 2452 2360 2004 2529 2972 2970 3124 3224 3366 3711 3591 3374 3724 3509 3052 3504 3843 3539 3216 3467 3147 3068 3170 3430 3104 3170 3318 3081 3077 3308 3054 2469 2289 2221 1586 2095 2020 1504 1390 1656 1483 1588 872 1215 2996 3057 3799 3952 3497 3683 3676 3407 3185 3177 3196 3520 3859 3458 3306 3228 3100 2989 2871 2629 2571 2643 2623 2279 1720 1547 1565 1447 1416 1474 1543 1400 1057 810 720 564
1450 1406 1569 2209 2479 2585 2320 2200 2176 2527 2404 2382 2792 3007 3347 3263 3100 3418 3099 3119 3530 3758 3459 3447 3575 3312 3081 3204 3173 3178 3263 3163 3140 3285 3903 3905 3108 2506 2286 1996 2398 2128 1840 1976 2027 1762 1664 1538 1374 2335 3284 3136 3244 3368 3281 3677 3696 4072 3228 3372 3393 3364 3450 3819 3288 3074 3019 2791 2560 2602 2740 2586 2107 1605 1486 1456 1410 1395 1539 1502 1100 842 767 683 540
1647 1856 2095 1957 2041 2636 2636 2443 2446 2514 2659 2393 2525 2814 3058 3066 2713 2916 3131 3289 3363 3390 3736 3541 3223 3410 3519 3339 3606 3323 3479 3330 3461 3207 3432 3716 3160 2568 2428 2438 2308 2289 2360 2230 2164 2484 1536 1750 1729 2028 2374 3154 2804 2813 3134 3278 4007 3825 3569 3841 3887 3667 4001 4836 3914 3206 2999 2755 2540 2683 2733 2477 1998 1629 1451 1378 1404 1478 1537 1294 878 728 687 639 470
1577 2384 2115 1644 1676 1895 1936 1760 1523 1915 2099 2158 2170 2598 2920 2903 2535 2358 2333 2894 2994 3032 3073 3192 2943 3312 3330 3256 3505 3721 3460 3456 3380 3372 3598 3567 3138 2738 2616 2685 2749 2584 2695 2717 2597 2600 2470 1986 2229 2122 2395 2539 2926 3581 3644 3136 5550 3633 3591 4050 4360 4047 6094 4882 4084 3723 3318 2685 2620 2669 2704 2389 1884 1611 1422 1352 1360 1430 1461 1083 718 629 656 635 310
1343 1724 2078 1770 1869 1897 1501 1417 1329 1493 1969 1805 1888 2274 2759 3042 2984 2765 2726 2899 3262 2854 2767 2868 2920 2785 2877 3059 3172 3350 3392 3354 2964 2695 2635 3221 3364 3084 2884 2916 2726 2684 2810 3025 3014 2775 2891 2753 2570 2270 2422 2628 2607 3542 3778 3180 2983 3380 3181 3496 3960 3353 2998 3544 4294 3772 3554 2797 2527 2646 2700 2339 1858 1552 1392 1322 1360 1450 1426 1026 575 538 639 623 182
1446 1301 1704 1577 1724 1882 1445 1483 1673 1525 2080 2590 1940 1883 2389 2754 2947 2630 2821 3002 3454 3002 2699 2858 2810 2635 2676 2990 3127 2716 2860 2766 2442 2187 2156 2068 2318 2548 2730 2569 2642 2597 2777 3107 2928 3087 3289 3020 2854 2802 2757 3251 3039 3373 3442 3486 3472 3509 3348 3500 2929 3038 2928 2771 3684 3932 3538 2692 2476 2678 2694 2289 1858 1550 1393 1304 1305 1401 1393 1067 593 518 614 617 404
1564 1372 1127 1278 1452 1993 1909 1645 2099 2036 2326 2286 1942 1952 2030 2538 2775 2359 1905 2332 2772 2849 2703 2896 2697 2636 2598 2696 2589 2570 2258 2296 2485 1992 1667 1717 1771 2125 2407 2439 2564 2523 2716 3352 3643 3497 3206 3083 3063 2870 2492 3084 3362 3275 3717 3783 3736 3951 3901 3512 2732 2716 2744 3200 3412 3793 3403 2621 2502 2727 2653 2281 1892 1687 1484 1366 1326 1334 1375 1252 694 570 503 679 556
824 1492 1231 1043 1386 2059 2514 2036 2266 2456 2219 2369 1960 1904 2327 2570 2570 2760 2627 2588 2665 2639 2498 2362 2371 2404 2341 2472 2407 2320 2138 2248 2486 2356 1868 1815 1934 2061 2088 2404 2982 3005 2930 2988 3512 3682 3320 3276 3486 3237 3066 3293 3226 3190 3372 3502 3772 3798 3693 3449 3258 3128 2766 2651 2639 3589 3455 2928 2680 2775 2660 2381 2134 1938 1656 1513 1401 1375 1332 1277 908 622 599 622 590
600 792 1494 1362 1324 1972 2450 2208 2139 2442 2209 2399 2468 1967 1883 2052 2385 2170 2332 2772 2966 2969 2726 2723 2642 2668 2536 2564 2184 2264 2454 2469 2516 2456 1767 1919 2057 1804 1958 2131 2516 2708 2706 2856 3252 3584 3789 3699 3463 3544 3784 4048 3822 3684 3813 3499 3303 3268 3835 4323 4000 3187 3360 2960 2290 3763 2877 2999 2894 2817 2668 2522 2358 2126 1840 1698 1558 1396 1339 1290 1135 691 593 582 638
854 548 1069 1542 1286 1753 2365 2134 1826 2234 2397 2321 2514 2377 1713 1671 1927 1960 1918 2374 2530 2817 2875 2654 2712 2798 2649 2748 2689 2436 2386 2280 2121 1829 2208 2224 2315 2188 2079 2088 2271 2479 2968 3242 3434 3675 3657 3882 3798 3458 3588 3688 3832 3806 3668 3949 3368 2803 2873 3050 3902 4685 4564 3586 2536 2429 3449 2974 2776 2867 2765 2718 2583 2257 2070 2017 1783 1531 1351 1301 1231 841 683 616 641
883 637 632 1344 1578 1561 2197 2197 1578 1761 2323 2391 2498 2738 2315 1655 1815 2180 1610 1662 1993 2019 2183 1874 1566 1627 1781 1820 2052 2367 2581 2760 2452 2192 2314 2669 2548 2261 2412 2809 2621 2688 2832 3000 3136 3418 3444 3534 3410 3292 3099 3054 3286 3358 3458 4326 4319 3490 3100 2928 3004 3143 4160 4450 4005 3153 2531 2721 3231 2732 2832 2693 2526 2308 2106 2206 2035 1702 1490 1296 1189 932 689 662 675
1068 694 558 696 1383 1526 1644 1888 1735 1505 2038 2562 2777 2875 2778 1941 1771 2200 2194 1503 1362 1621 1622 1620 1348 868 894 1028 892 1057 1688 2467 2872 2732 2605 2289 2493 2720 2382 2784 2932 2869 2762 2365 2628 2789 3074 2909 2695 2377 2378 2604 3202 3146 2687 3363 4030 4051 4085 3942 3461 3062 3082 3806 4310 4029 3790 3102 3491 3078 2694 2438 2588 2218 1879 1704 1933 1846 1647 1366 1211 1028 758 702 722
1223 983 788 490 741 1223 1326 1410 1507 1390 1201 1932 2221 2519 2791 2600 2015 1705 1983 1886 1328 1114 1406 1390 1426 1541 1082 546 470 477 666 1454 2835 3336 2740 3458 2728 2697 3012 3031 3284 3214 3107 2454 2369 2937 3020 2666 2403 2303 2386 2655 2764 2718 2494 2164 2304 2043 2336 2826 3000 2971 3104 3292 3617 3867 4066 3204 3220 2881 2591 2725 2368 2032 1816 1795 1708 1909 1776 1471 1318 1150 849 758 813
1644 1492 1287 1078 754 823 1202 1432 1500 1355 1126 1022 1728 1728 2142 2344 2237 1414 1224 1719 1776 1354 1353 1585 1303 1103 1254 1081 309 543 1612 2480 3390 3182 2789 2551 2586 2129 2230 3093 3709 3732 3377 3173 2731 2600 2756 2730 2154 1845 1827 1768 1742 2080 2560 2424 1810 2203 2690 3402 3833 3591 3505 3558 3794 4075 3912 3672 2876 3349 3482 3472 3242 2688 2558 2294 1530 1864 1741 1372 1400 1263 939 788 796
1959 1893 1681 1445 1185 858 846 1135 1351 1343 1053 678 980 1488 1624 1808 1965 2152 1963 1752 2254 2605 1938 1860 2236 1484 956 918 1131 1086 2602 2772 3390 2673 2545 2214 2045 1887 1751 1948 2806 4005 3474 3186 3068 2683 2576 2586 2210 1912 1329 1181 1120 793 592 547 549 874 1800 2380 2910 3160 3172 3239 2975 3387 4071 3848 3904 3788 3517 3472 3564 3302 2974 1852 1469 1757 1840 1708 1610 1378 1012 761 771
2262 1989 1834 1698 1628 1292 948 933 1021 1133 1179 751 154 1106 1231 1248 1418 1460 1153 1571 1543 1793 2297 1886 1611 1746 1676 1017 523 573 1048 1798 2310 3285 2704 1864 1752 1677 1617 1612 1519 1466 2093 3559 3722 3395 3292 2847 2332 1842 1476 1408 1780 2214 1505 632 653 1384 2641 2814 3166 3657 3546 3319 3165 2919 3536 4308 4261 3983 3516 3324 3678 3510 2742 2600 1749 1528 1693 1887 1791 1445 1031 754 702
2113 2305 2218 1911 1872 1708 1399 1262 1135 1069 1089 837 97 0 882 806 415 548 711 480 762 1114 1362 1896 2086 1876 1782 1480 1154 558 381 2149 2835 2527 3118 3795 2232 1434 1437 1373 1351 1427 1501 1484 1681 2820 3383 3300 3358 3143 2747 2518 2561 2493 2257 2407 2163 1983 2693 2710 2919 3136 3381 3528 3345 2646 2935 3761 3894 3911 3254 2597 3916 3465 2398 2736 1849 1428 1518 1898 1881 1441 1047 693 576
2146 2201 2185 2166 2009 2066 1888 1614 1516 1366 1278 933 824 261 0 0 0 230 1091 605 426 564 892 1124 1415 1903 2209 2107 1796 1466 1199 1281 1984 2460 2568 2587 3256 3861 3025 2432 2608 2241 1453 1306 1452 1512 1574 2411 2886 2924 3117 3229 3156 3141 3054 2989 3100 2992 2865 2792 2804 2488 2770 3155 3078 3256 3520 2935 2987 3018 3366 2896 2493 2671 2453 2164 1755 1376 1281 1656 1826 1531 1055 654 583
1861 2127 2105 2113 2081 2106 1979 1824 1740 1524 1312 974 898 780 130 0 0 20 966 920 676 637 753 1106 1454 1539 1717 2012 2205 2054 1914 1929 2030 2625 2771 2804 2872 2800 3503 3895 3549 2792 2999 2744 2206 1813 1885 1959 2292 2707 2953 3175 3542 3793 3680 3477 3397 3694 3465 3123 3203 3022 3090 3231 3176 3290 3327 3519 3586 3386 3034 2462 2279 2468 2557 2164 1775 1178 907 1216 1654 1494 1006 629 536
1661 1795 2046 1981 1830 1898 1920 1935 1850 1776 1624 1113 1109 1092 1021 899 714 433 710 1055 982 788 796 915 1192 1637 1867 1924 2011 2088 2290 2220 2215 2086 2398 2585 2807 3076 3046 2983 2852 2749 2516 2460 2520 2362 2173 2147 2220 2120 1950 2014 1968 3684 5004 3570 2569 3133 3632 3560 3629 3839 3554 3136 2630 2123 2183 1986 3198 3352 2971 2423 2370 2062 2210 2055 1633 1369 862 993 1424 1293 931 611 461
1770 1590 1697 1952 1910 1823 1799 1881 1857 1854 1796 1389 1142 1140 1162 1130 1060 944 764 768 938 1051 930 984 1086 1356 1786 2107 2197 1883 1720 2283 2146 1836 1988 1968 1968 2018 2414 2578 2462 2028 1619 1626 2407 2539 2424 2110 1985 2030 2091 2009 1961 1964 2035 2252 3297 3283 3288 3202 3062 2875 2800 2692 2493 2146 2114 1411 1095 2276 2487 2406 2328 2303 2309 1996 1829 1538 1063 754 791 1009 816 529 388
1901 1762 1738 1808 1915 1664 1494 1725 1642 1761 1821 1533 1181 1182 1198 1179 1167 1157 1104 976 891 1032 1110 1198 1161 1205 1525 1725 2251 2234 2150 1991 1748 1813 1811 1672 2101 1734 1722 1756 1975 2100 2104 1688 1267 2499 2192 2367 2009 1842 1891 2038 2034 1971 1792 1713 1719 1796 2588 2950 2858 2653 2606 2425 2151 1958 1689 1168 1055 1277 2242 2452 2072 2196 2296 2037 1526 1691 1549 1414 677 780 653 535 406
2335 2334 1902 1744 1860 1840 1574 1381 1281 1248 1677 1577 1218 1237 1232 1234 1209 1248 1276 1252 1198 1134 1126 1268 1352 1405 1445 1555 1480 1810 1917 2129 1619 1463 1566 1813 2089 2027 1908 1770 1605 1795 1837 1822 1521 1220 2022 2531 2402 2147 1860 1723 1618 2008 2369 1462 1384 1261 2088 2638 2897 2866 2552 2287 2165 2316 2122 1989 1477 1685 2576 2570 2101 2023 1878 1624 1612 1460 1712 1292 838 811 609 548 428
Wind_Speed
11 11 12 12 13 13 13 12 12 12 12 12 12 12 11 11 11 10 10 12 13 14 15 15 15 15 15 14 14 15 15 15 16 17 17 17 15 12 12 12 12 11 11 11 10 10 11 11 11 12 13 12 13 13 13 13 13 12 12 12 13 13 12 12 11 11 10 8 8 9 10 10 12 13 14 15 16 16 16 15 15 14 14 14 16
11 11 12 13 13 14 14 14 13 13 13 13 13 13 12 11 11 11 10 11 11 14 15 14 13 13 14 14 14 13 14 14 16 17 16 15 14 11 11 10 11 10 10 10 10 10 10 11 12 13 13 13 13 13 13 12 12 12 12 12 13 13 13 12 12 11 9 8 10 11 11 13 14 16 16 17 17 17 17 17 16 17 17 18 19
11 11 11 13 13 15 14 15 14 13 13 12 12 13 12 12 13 12 11 11 12 13 15 13 14 13 13 13 13 13 14 15 15 16 14 14 13 11 9 10 9 10 9 9 9 10 11 11 13 13 13 13 13 12 12 11 11 12 12 13 14 14 14 13 12 11 10 9 11 12 14 16 17 17 18 18 18 18 18 18 18 18 20 20 20
10 11 11 12 13 13 14 14 14 15 14 13 13 12 12 11 11 11 11 11 12 13 15 14 14 13 13 13 13 14 14 15 15 14 14 12 13 10 10 8 8 8 9 9 9 10 12 12 13 14 13 13 12 12 11 11 12 13 14 14 15 14 14 13 12 11 11 11 13 15 16 18 19 19 20 20 20 20 20 20 20 21 21 22 22
10 9 11 11 11 13 12 13 14 15 14 13 13 13 12 11 10 11 11 10 11 12 14 14 14 16 14 13 13 13 14 14 14 13 13 11 10 10 8 8 6 9 9 9 10 11 12 12 12 13 13 12 12 12 12 12 13 14 15 16 16 16 15 14 12 12 12 14 16 17 19 20 21 21 22 22 22 22 21 22 22 22 23 24 25
9 9 10 9 10 11 12 12 13 14 13 15 14 14 13 14 13 12 11 12 11 13 13 14 14 14 14 14 14 14 14 13 13 12 12 11 9 9 8 6 7 6 6 11 11 12 12 12 12 11 12 12 12 13 14 14 15 16 17 17 16 16 15 14 13 13 15 17 19 21 22 23 24 23 24 24 23 23 24 23 24 24 25 26 26
8 9 9 9 9 10 11 11 12 13 12 13 15 14 14 14 14 14 14 12 13 12 13 13 12 13 14 14 13 13 13 11 12 10 10 9 9 7 7 7 5 6 5 5 12 13 12 12 12 12 12 13 14 14 15 17 17 18 18 18 17 16 15 15 14 16 18 20 22 23 24 25 25 25 25 25 25 26 26 27 26 26 26 27 27
8 9 8 8 8 8 9 10 11 12 12 12 14 13 13 14 14 14 13 14 14 11 12 11 11 10 10 11 10 11 11 10 10 10 8 9 8 7 6 5 6 5 6 6 6 8 13 11 12 14 15 15 16 17 18 18 19 19 19 18 17 17 16 15 17 19 22 24 25 26 26 27 26 26 26 27 27 27 28 28 27 27 27 27 27
7 8 8 7 7 7 8 9 10 10 11 11 11 12 13 11 12 13 13 14 13 11 11 10 10 9 9 9 9 12 11 11 9 9 8 9 10 6 6 3 5 6 7 5 5 5 13 13 14 16 17 19 18 19 20 21 21 20 19 18 17 17 17 18 21 23 25 26 27 27 28 27 26 27 28 29 29 29 29 29 29 29 28 28 29
6 7 8 7 7 7 7 8 9 11 11 11 11 11 11 12 11 11 12 13 12 12 11 11 11 9 9 7 9 10 9 10 9 9 8 8 7 7 7 7 6 5 6 6 4 5 6 13 15 17 19 19 20 20 22 22 21 20 19 18 18 18 20 22 24 26 27 27 28 28 28 27 27 29 30 31 30 30 30 31 31 31 31 31 32
4 5 6 5 5 6 6 8 9 11 11 12 10 10 11 10 10 9 10 11 10 11 12 11 10 10 8 8 6 7 10 9 9 9 9 9 8 9 7 7 7 5 5 7 6 5 7 8 11 12 14 21 19 21 21 22 21 20 20 20 21 22 24 25 27 28 28 29 29 28 27 28 30 32 31 31 31 31 32 32 33 33 34 34 35
4 3 4 5 5 5 6 7 8 10 12 12 11 10 10 9 9 9 8 9 8 10 10 10 9 9 10 9 7 7 8 9 9 7 7 6 6 10 10 7 6 7 6 8 6 7 7 9 11 12 11 16 19 19 21 20 20 20 21 23 24 26 27 28 28 29 29 29 29 28 29 31 33 33 32 31 32 32 34 34 35 36 36 37 38
3 3 2 4 5 5 6 7 8 9 10 11 11 10 10 9 8 9 9 9 8 9 8 11 9 7 7 8 5 7 5 7 9 7 5 5 5 7 7 9 7 7 7 7 8 9 9 10 11 11 12 12 15 19 18 19 20 22 23 24 26 27 28 29 29 30 30 30 29 29 30 31 32 32 32 32 32 34 35 36 37 38 39 39 40
3 2 2 3 4 5 6 6 8 9 10 9 9 8 9 9 8 8 9 8 9 9 9 10 8 6 6 5 5 5 8 6 7 5 5 4 4 4 5 9 8 7 7 7 9 9 10 10 11 11 12 12 13 11 13 16 19 23 23 26 27 28 29 29 30 30 30 29 30 31 30 30 31 31 31 32 33 34 35 36 37 39 40 41 42
3 3 2 2 4 6 6 7 8 9 9 8 8 8 8 8 8 8 7 6 8 7 7 11 8 7 6 6 4 4 6 7 7 6 6 4 6 6 9 7 7 8 9 9 8 8 8 9 8 10 11 12 12 11 12 13 14 17 23 24 25 27 28 29 30 30 30 30 30 30 29 29 30 31 31 32 33 34 35 36 37 38 40 41 43
3 3 2 2 3 5 7 8 7 9 10 10 10 9 7 6 6 5 7 6 5 5 6 6 9 7 6 7 4 4 5 5 5 5 4 6 9 7 8 9 6 9 9 11 6 8 8 8 9 10 11 12 12 12 13 14 12 19 22 23 25 26 28 29 29 29 29 30 29 28 28 28 29 29 31 32 32 33 34 35 37 38 39 40 42
2 3 3 2 4 5 7 7 7 7 9 9 10 9 8 6 6 4 5 7 4 4 5 5 6 9 7 7 3 4 6 6 5 8 9 5 8 7 8 12 8 9 11 9 8 8 10 7 8 9 10 11 12 13 15 15 16 17 19 23 24 24 25 27 28 28 28 29 28 27 26 26 27 28 30 31 32 33 34 35 36 38 38 39 40
2 3 2 2 3 5 6 6 6 6 8 9 10 10 8 7 4 4 3 4 7 5 3 6 5 6 7 6 9 7 8 8 8 6 10 9 6 6 10 10 9 9 10 9 8 8 7 9 7 9 9 10 12 14 15 15 16 16 16 13 17 20 22 25 27 27 28 27 26 26 26 26 27 28 29 31 32 33 33 34 35 36 37 38 39
2 2 2 3 3 4 5 6 6 6 6 7 7 7 7 6 6 4 4 4 4 5 6 3 5 6 6 6 4 7 7 8 7 7 5 9 13 9 9 10 9 8 9 9 7 8 10 11 9 9 7 10 12 14 15 14 15 17 16 16 17 19 21 23 25 26 26 25 25 25 26 27 27 28 29 31 32 32 32 32 33 34 34 36 37
4 3 3 2 4 4 5 5 5 6 6 6 6 7 8 7 6 5 5 4 3 4 4 6 5 5 7 8 5 8 9 9 9 8 7 7 8 11 8 11 10 12 12 11 11 11 11 10 8 7 8 9 11 12 13 13 14 15 15 15 16 18 19 21 23 24 24 24 24 24 25 26 27 28 29 30 30 29 29 30 31 31 32 33 34
5 4 3 3 3 4 4 5 5 5 5 5 5 5 4 5 4 3 3 2 3 4 4 5 6 4 5 8 9 8 7 8 6 8 10 10 8 8 10 11 11 12 14 13 12 10 9 9 9 9 7 8 10 11 12 13 13 14 11 7 15 17 18 20 22 23 23 22 23 23 24 26 27 28 28 28 28 28 28 28 28 28 28 29 30
5 4 4 3 3 3 4 3 4 4 4 4 4 4 2 2 2 2 2 2 3 3 3 3 6 7 6 7 9 10 9 8 9 8 7 9 10 11 8 9 10 12 13 13 13 12 12 9 7 6 8 7 8 9 11 11 12 15 11 16 17 16 17 18 20 20 20 20 21 22 22 23 25 25 25 25 25 25 25 24 24 25 26 27 27
5 5 3 2 1 2 3 2 3 3 4 3 1 0 1 0 1 1 2 2 1 2 3 3 4 6 6 8 9 8 8 8 9 11 10 8 12 12 10 13 16 11 13 14 13 9 8 9 9 8 7 6 7 8 9 9 10 11 17 17 15 15 16 17 18 18 18 19 19 20 20 20 21 21 21 21 22 22 22 21 21 22 23 24 25
6 5 3 2 2 1 2 1 1 2 2 3 2 0 1 1 1 1 1 2 2 2 4 4 5 4 8 6 8 9 7 8 6 5 7 9 10 11 10 9 12 12 11 9 9 10 10 8 9 8 7 5 7 9 8 10 6 9 17 7 13 14 14 14 15 16 16 16 16 16 17 17 17 16 17 17 18 19 20 20 19 19 20 20 21
4 2 4 3 3 1 1 0 0 1 2 2 2 2 1 1 1 2 0 2 2 2 3 3 4 5 6 7 8 8 8 8 8 7 7 7 8 9 12 11 9 8 11 11 11 7 9 8 8 8 7 7 7 10 11 9 8 9 16 11 10 11 11 11 12 13 13 13 13 13 14 14 12 12 12 13 15 17 18 18 17 15 15 15 16
2 2 2 4 4 4 3 2 1 1 1 1 2 1 1 2 0 2 2 2 3 3 4 4 5 5 7 7 8 8 9 8 7 7 6 5 6 8 9 10 10 9 7 8 10 8 5 7 6 7 8 10 9 9 11 10 7 7 13 14 7 7 4 7 8 10 10 10 10 10 10 9 8 8 10 12 13 13 14 14 14 13 13 13 14
4 3 2 3 3 4 5 3 3 2 2 1 1 1 1 2 3 2 4 1 3 4 4 4 4 4 6 7 9 9 10 10 9 7 7 7 5 7 8 9 9 9 5 6 6 11 11 7 7 7 8 9 9 8 10 9 5 7 13 12 4 4 1 1 5 6 7 7 7 5 7 8 7 8 10 11 10 9 9 11 12 13 14 13 12
6 4 2 2 3 4 5 5 4 3 2 0 1 2 0 2 2 3 4 2 2 3 5 3 3 3 6 7 8 10 9 10 9 8 7 7 6 6 5 6 8 7 9 7 7 5 9 9 6 9 9 8 10 6 7 10 6 14 13 8 6 3 7 3 3 3 3 2 2 2 4 5 5 8 9 10 9 7 7 9 11 12 12 12 11
8 6 4 3 3 3 4 5 5 3 2 1 0 1 1 1 2 4 5 4 1 3 4 4 5 3 4 4 7 8 10 10 10 8 7 8 6 5 6 6 6 7 8 7 7 10 9 12 9 8 9 8 7 7 5 6 5 9 8 7 5 2 5 3 5 3 3 4 2 1 1 3 4 7 9 10 10 9 8 9 9 10 10 10 9
8 8 6 4 4 3 4 4 4 4 2 1 1 0 0 1 2 3 3 4 2 2 3 4 3 4 5 5 5 7 8 8 8 8 6 5 5 4 4 4 5 7 7 8 8 8 9 8 10 9 7 7 4 3 1 4 7 6 5 5 4 3 7 6 9 4 6 6 5 3 2 2 5 8 11 12 13 10 9 9 9 9 8 9 8
9 8 7 5 4 4 4 5 5 3 3 1 2 1 1 0 1 1 1 2 2 2 2 3 4 3 4 5 6 7 8 9 10 9 7 5 4 4 3 3 4 5 7 7 7 6 8 8 9 11 9 7 7 5 3 2 7 3 3 3 2 2 7 11 12 8 6 7 6 5 5 7 9 11 13 14 15 13 10 9 10 9 9 9 8
9 7 6 5 4 4 4 4 4 4 3 2 2 2 2 1 1 1 2 2 1 2 2 2 4 2 2 4 5 7 7 8 8 9 7 6 5 4 2 2 2 4 4 5 5 5 5 6 7 5 4 8 5 4 5 2 8 12 4 2 3 4 5 12 13 13 9 6 6 7 10 11 11 13 14 15 17 15 11 10 11 11 11 9 9
10 8 7 6 5 4 3 4 4 5 4 3 3 3 3 3 2 2 3 4 2 2 1 3 4 2 3 3 4 5 6 7 8 9 8 7 5 4 3 2 1 1 2 2 4 4 2 3 1 2 4 4 3 5 3 3 4 6 4 5 3 3 2 3 12 14 13 10 8 9 11 12 13 14 15 16 17 16 14 12 12 13 13 12 11
10 9 8 7 6 5 4 4 5 5 5 4 3 4 4 4 3 3 3 3 3 2 3 1 1 3 2 2 3 3 3 4 6 7 7 7 6 5 4 3 3 2 3 0 1 1 1 1 2 1 1 1 1 2 2 3 4 5 5 6 4 5 5 2 7 13 15 12 10 10 11 13 14 14 16 16 16 17 16 14 14 13 15 15 14
10 9 9 8 8 7 6 6 6 6 6 5 4 4 4 4 4 2 3 4 3 3 3 2 1 1 1 2 3 2 2 1 2 4 5 6 7 7 6 6 5 5 6 5 4 3 3 3 3 2 4 3 1 1 1 1 2 3 4 6 7 7 6 5 3 13 16 16 14 12 14 15 15 15 16 16 17 17 18 17 15 14 16 17 16
10 11 10 9 9 9 8 7 7 8 7 6 5 4 5 5 5 4 3 2 3 3 3 3 2 2 2 1 2 2 2 1 2 3 3 4 4 5 5 5 5 5 6 6 6 5 5 4 5 4 4 4 2 2 3 3 1 3 4 6 7 8 8 7 5 12 17 20 19 17 18 17 16 16 16 16 18 18 18 18 17 16 16 16 16
10 12 12 10 10 10 9 9 9 9 9 8 7 5 6 6 6 5 4 3 3 3 3 3 3 3 3 3 2 2 1 1 1 0 1 1 2 3 4 5 6 6 7 6 7 7 6 5 5 5 5 5 5 4 4 3 3 3 4 5 6 7 8 6 4 17 21 20 21 20 20 20 18 17 17 17 18 18 18 18 18 18 17 16 16
12 12 12 12 11 10 11 11 11 11 11 10 9 7 6 6 7 6 6 5 4 3 4 4 3 3 2 2 2 2 1 1 1 2 2 1 2 3 3 4 5 6 6 6 7 7 6 6 6 5 7 7 7 7 6 5 4 3 4 5 6 8 8 6 6 8 15 15 14 17 17 20 20 20 18 18 17 18 17 18 18 18 16 17 18
13 13 12 12 13 12 12 13 12 13 13 12 12 10 8 8 8 8 7 6 6 5 4 3 3 2 2 2 3 2 2 2 2 2 3 4 3 3 4 4 5 5 6 6 7 7 7 7 7 7 6 7 7 7 8 9 6 3 3 5 5 8 8 7 6 6 6 9 20 18 17 18 22 19 21 16 17 18 19 20 20 18 17 17 19
15 14 13 13 14 14 14 14 14 14 14 14 13 12 11 10 10 9 8 8 7 6 6 5 4 3 3 2 2 2 2 3 3 3 3 3 4 4 5 5 6 6 6 6 7 8 8 8 9 9 9 8 8 8 8 9 8 7 6 5 5 7 7 8 7 6 8 7 5 14 19 22 20 22 22 17 17 18 20 23 22 20 17 17 19
18 16 14 14 14 14 14 14 15 15 14 14 15 15 14 12 11 10 9 8 7 7 7 6 6 5 4 4 3 2 3 3 4 4 4 7 5 4 4 5 5 6 6 6 7 8 9 9 9 11 11 11 11 11 11 11 10 8 8 6 5 7 8 9 9 8 9 8 8 9 15 15 17 18 18 18 19 19 20 17 23 24 19 17 18
20 19 17 16 14 14 14 14 14 15 14 15 16 15 16 16 14 13 12 11 10 10 9 8 7 6 5 5 5 4 6 6 9 9 7 6 6 3 4 5 5 6 6 6 7 9 9 10 11 11 12 12 13 14 13 12 11 12 11 11 9 8 9 11 12 12 13 10 10 11 10 11 11 11 11 8 18 17 15 18 14 17 18 17 19
21 21 20 17 15 14 13 13 13 14 14 14 16 19 17 15 15 15 14 13 12 11 10 10 9 9 8 7 7 7 10 10 9 10 10 10 10 9 6 3 3 4 6 7 8 9 9 10 11 12 12 12 12 11 12 12 12 12 11 11 9 8 9 10 12 15 18 14 13 10 10 12 13 12 11 11 14 17 16 20 24 22 20 20 20
24 22 20 18 17 15 14 13 13 13 14 14 20 20 19 17 16 15 15 15 14 12 12 11 12 12 11 10 9 9 9 9 9 11 12 11 11 11 11 10 9 7 5 5 8 9 10 10 11 12 12 13 14 15 14 13 12 13 13 12 12 11 10 10 12 13 19 20 14 13 10 12 17 15 13 16 15 15 22 27 25 23 22 21 21
26 24 21 20 19 18 16 14 13 13 14 15 nan nan 20 18 16 15 15 14 13 13 13 13 13 14 14 14 13 13 12 16 15 12 13 14 15 13 13 13 11 12 11 10 9 8 9 10 11 12 15 15 15 15 16 16 15 13 13 13 14 14 13 12 12 13 16 19 16 14 13 14 19 15 15 20 21 23 26 27 25 24 23 23 22
29 26 23 21 21 20 19 16 16 15 14 16 22 22 nan nan nan 19 15 13 12 12 13 13 14 14 15 15 15 15 15 15 16 15 15 15 17 19 18 16 15 15 16 16 15 14 13 12 11 12 15 16 15 16 17 19 18 17 15 14 14 14 14 14 13 14 15 18 17 15 15 16 18 16 17 19 24 24 23 30 27 25 25 24 25
30 28 26 24 23 21 20 19 18 16 16 15 21 22 22 nan nan nan 18 15 13 13 13 13 14 14 15 16 16 16 17 17 18 18 18 19 19 19 19 19 18 17 17 19 20 19 19 18 16 14 15 16 16 17 18 18 19 19 18 15 15 14 14 13 14 17 17 20 20 20 18 19 20 19 19 19 26 22 26 30 29 27 26 26 26
32 30 30 28 25 23 23 21 20 18 17 18 20 23 22 22 25 25 19 16 13 13 13 13 14 16 15 15 16 16 17 18 20 23 22 22 21 20 19 19 19 18 18 19 22 23 22 22 21 19 19 18 19 18 19 18 20 22 20 19 19 19 18 16 16 17 18 21 26 23 21 20 20 18 20 19 26 23 25 26 31 29 28 27 28
32 30 29 30 30 27 26 25 22 20 19 20 23 23 24 24 28 23 19 17 15 13 13 14 15 15 15 15 16 17 17 18 21 27 27 25 21 20 20 20 20 19 18 20 28 28 26 22 19 20 19 19 22 22 22 23 24 24 22 21 21 22 20 18 17 18 19 20 22 25 23 21 22 21 21 21 26 23 21 24 30 30 30 30 29
30 29 31 30 28 28 27 27 26 23 21 22 26 24 24 27 26 22 19 18 15 14 14 15 16 16 14 13 14 15 16 18 22 30 29 30 23 21 20 19 19 18 18 20 23 28 29 29 27 23 22 23 22 21 23 25 29 31 27 24 24 24 22 21 19 18 17 19 21 24 24 22 22 23 23 23 28 26 22 24 32 32 32 30 30
29 31 31 30 29 31 29 28 28 25 24 23 28 27 27 28 27 22 19 17 15 13 14 15 15 16 15 15 15 15 15 17 21 29 31 31 24 22 22 21 18 17 19 23 23 21 26 28 26 25 23 22 23 24 24 25 29 32 29 27 26 25 23 22 22 20 18 20 21 28 27 24 24 24 24 24 24 24 30 30 34 32 31 32 33
Wind_Direction
90 94 97 99 94 90 91 99 101 105 112 125 129 125 120 116 116 112 108 99 93 89 87 87 84 88 90 90 96 101 107 112 112 112 114 110 109 108 101 107 108 111 107 109 106 102 94 92 94 95 93 93 92 90 88 84 84 86 87 90 90 90 90 95 97 95 94 77 63 51 45 48 52 52 52 54 51 50 49 51 47 43 36 29 22
96 95 93 93 93 92 91 93 98 107 117 126 129 130 128 124 123 124 120 109 102 102 100 98 97 98 99 98 102 104 104 109 110 111 111 109 108 101 89 93 97 98 101 101 102 102 96 94 91 92 91 90 88 86 85 85 84 86 88 87 88 88 92 94 96 95 86 67 57 50 54 56 58 56 56 55 52 47 46 43 41 36 30 26 23
95 90 88 87 88 90 92 90 96 104 111 120 128 134 135 135 132 128 123 119 115 111 108 106 103 101 101 101 103 109 114 111 105 102 104 110 109 103 82 78 83 84 89 89 95 93 96 97 94 93 92 90 88 88 88 89 90 86 84 82 85 89 91 92 91 89 73 59 57 57 61 63 60 58 57 55 52 45 43 41 38 35 32 31 28
95 89 88 88 88 89 90 95 97 100 108 119 125 130 131 130 128 123 119 119 119 118 116 117 116 112 108 114 113 116 117 116 119 122 117 113 106 104 99 77 59 72 76 80 77 81 87 86 86 88 92 94 95 94 92 91 91 89 89 87 89 91 90 88 82 76 70 61 64 67 67 66 65 61 59 56 53 50 48 45 42 40 38 37 33
97 94 87 90 91 90 90 94 97 100 106 115 118 115 118 117 120 116 120 118 123 122 116 122 125 125 122 122 125 125 123 124 119 118 119 104 103 106 110 105 80 40 50 60 65 74 74 81 91 93 96 99 98 96 98 95 92 90 88 89 89 87 86 81 77 74 69 70 74 74 71 70 67 62 60 59 56 56 53 50 49 45 43 42 38
96 97 93 86 87 92 94 97 100 103 102 103 106 115 121 125 126 123 124 125 128 129 128 128 126 123 130 131 133 133 129 132 131 125 114 120 118 106 98 93 93 87 54 36 53 58 70 78 86 94 97 98 99 96 93 92 92 91 91 90 89 87 85 82 78 74 75 77 77 75 72 71 68 66 63 62 61 61 57 56 53 50 45 42 40
108 101 104 95 85 89 93 99 107 106 105 110 111 114 118 120 126 128 128 131 129 132 130 129 129 135 135 133 135 136 136 139 133 123 121 119 109 117 114 106 105 91 82 75 37 48 56 69 78 90 92 91 91 91 90 89 92 92 92 93 90 86 84 82 79 78 78 80 78 75 73 70 69 67 67 65 64 62 59 56 52 49 45 42 39
113 112 105 104 97 90 100 105 105 106 115 114 111 113 117 119 123 125 128 132 129 131 124 124 124 126 126 123 129 124 131 133 126 128 130 115 119 108 107 102 93 107 111 88 85 28 39 55 70 71 78 81 84 86 89 90 90 89 90 90 87 85 85 85 83 82 82 80 77 74 71 70 67 67 68 66 64 61 58 55 53 50 46 43 40
125 120 116 113 112 102 99 102 107 116 117 117 117 119 118 118 118 126 127 128 132 137 131 126 124 120 116 124 137 133 135 129 130 127 125 111 102 103 93 101 108 90 78 73 65 61 28 47 53 68 72 78 78 81 83 84 83 86 86 85 84 84 83 84 85 84 82 79 77 74 72 71 70 68 67 65 64 61 58 55 52 50 48 46 43
128 125 131 130 127 126 120 111 110 117 121 123 125 124 123 124 125 128 132 131 137 138 136 136 130 127 128 134 131 127 124 122 129 118 111 103 96 106 111 119 104 111 113 113 104 85 69 33 45 56 64 68 73 76 79 79 82 84 85 85 84 83 83 82 82 81 80 78 76 75 73 72 70 68 65 63 62 60 59 56 53 50 48 46 45
128 129 125 129 131 131 119 120 117 121 124 122 126 131 130 130 131 131 130 137 139 141 139 130 130 135 137 134 127 120 122 125 117 121 125 131 146 119 111 109 111 94 91 83 71 68 88 94 68 67 56 52 66 71 72 76 80 80 79 80 81 82 83 81 79 78 77 76 75 75 75 72 70 67 64 62 61 59 58 56 53 51 48 47 46
117 125 137 149 149 142 143 122 132 130 135 137 135 132 133 132 131 132 131 129 136 139 132 123 133 143 147 126 124 126 123 126 115 114 118 113 127 128 121 108 104 102 78 71 95 96 85 82 79 76 77 46 55 64 70 75 75 75 76 78 78 79 79 78 78 77 76 75 75 74 72 71 69 67 65 63 61 59 58 57 55 52 50 48 47
114 122 147 165 160 166 159 150 139 141 141 147 149 146 137 135 132 126 133 136 138 126 130 130 137 135 133 131 138 122 123 125 132 122 121 129 122 109 120 104 99 85 84 93 87 87 78 74 80 85 85 87 59 54 64 67 69 71 74 75 76 76 76 77 77 76 75 74 74 72 69 67 67 67 65 63 61 60 59 57 55 53 51 49 48
121 124 144 165 169 169 171 170 155 158 155 155 153 147 144 138 142 136 132 145 138 138 145 127 117 131 141 150 150 149 156 135 119 142 134 135 115 106 111 112 104 91 86 80 75 72 73 78 87 94 97 90 98 88 68 62 63 65 70 71 73 75 76 76 77 77 76 75 74 72 69 68 68 67 66 64 62 61 60 57 55 53 51 50 48
120 115 142 166 172 179 175 178 168 170 162 161 162 161 155 156 144 149 145 136 137 137 140 138 145 160 154 128 162 152 150 146 152 152 138 143 128 144 134 123 115 106 102 87 92 98 106 106 105 101 99 99 99 95 91 89 90 59 64 69 72 75 78 78 78 78 77 75 73 70 69 68 69 67 65 64 63 62 60 58 56 54 52 50 49
110 105 144 177 183 174 180 184 179 176 174 176 175 175 172 159 149 156 141 121 126 140 148 156 149 159 151 152 148 138 154 157 145 149 141 146 132 149 136 119 119 117 105 100 111 115 112 112 108 105 101 102 101 98 97 100 76 64 65 70 69 73 77 78 79 79 79 77 74 72 70 69 68 67 66 65 62 60 59 58 57 54 52 51 49
126 114 131 183 178 176 182 183 181 181 186 186 180 185 183 185 177 162 135 143 134 139 143 157 178 169 170 138 153 154 162 155 150 144 133 137 157 164 136 117 133 122 114 132 129 119 115 124 124 112 105 100 96 99 100 93 82 78 69 63 68 72 75 78 81 81 80 78 76 74 73 73 72 71 69 67 64 62 60 58 56 54 52 50 48
142 118 129 164 171 172 171 174 180 187 186 187 192 194 189 174 201 153 171 137 148 134 146 148 170 171 156 164 163 162 150 149 126 134 128 150 127 143 137 143 135 128 124 112 121 118 130 130 132 118 110 104 108 104 99 91 85 82 84 84 64 73 77 80 81 82 82 81 81 79 78 77 76 75 72 69 65 62 60 57 55 54 52 51 50
172 136 152 150 158 157 157 157 177 186 192 194 194 180 202 191 193 177 161 184 145 142 151 138 177 137 139 143 160 144 154 143 149 128 136 148 139 139 154 143 134 125 120 125 132 143 155 153 140 137 126 113 107 101 92 89 86 82 89 90 82 82 83 83 83 83 84 85 85 82 81 80 77 74 72 68 64 61 59 57 54 53 51 50 50
187 196 152 153 146 140 138 148 161 182 188 189 193 189 203 196 187 185 174 163 162 147 145 161 147 145 160 146 156 165 152 143 152 145 130 141 130 140 152 147 150 153 150 153 165 172 171 152 144 119 119 113 102 95 94 96 97 93 88 66 78 85 89 90 87 84 86 88 87 85 83 81 78 75 71 68 66 63 59 57 54 52 50 51 49
183 198 170 158 150 138 135 141 155 171 173 183 189 212 193 201 184 177 156 163 158 185 163 152 132 147 157 150 157 149 144 150 154 133 149 147 148 149 152 146 149 155 152 155 164 166 166 172 164 140 122 112 100 92 94 100 101 100 98 92 99 96 96 95 92 88 88 88 88 86 82 80 78 76 74 72 69 66 61 58 55 53 53 50 48
205 188 201 168 154 144 133 140 148 155 155 183 201 213 188 186 158 154 166 157 185 169 153 164 143 160 147 157 155 153 151 145 138 141 163 145 141 144 149 149 146 148 150 162 163 174 169 166 124 137 145 128 110 97 104 106 112 108 125 118 108 102 102 99 95 92 90 89 88 86 84 82 79 76 74 71 69 65 63 61 57 55 53 50 47
204 228 218 218 198 133 126 147 136 178 151 180 191 158 310 59 113 187 127 108 142 152 155 155 152 150 142 147 146 145 144 146 151 155 154 153 150 143 152 164 154 157 158 163 153 173 166 158 162 168 147 149 127 120 122 119 120 132 110 101 103 104 104 102 101 97 94 92 89 86 84 83 82 78 74 72 68 64 61 58 55 52 50 47 43
199 231 252 288 273 149 128 150 141 158 164 158 194 182 168 268 149 81 85 98 129 150 152 168 138 147 128 132 134 138 148 136 144 138 145 159 151 144 152 152 141 154 160 154 145 171 167 174 169 169 162 149 139 129 119 110 124 118 115 107 104 102 102 101 103 100 96 96 90 84 82 79 77 77 76 73 67 61 58 54 50 47 45 43 40
206 231 274 294 282 266 261 121 288 163 178 195 195 194 159 127 290 71 150 84 110 126 149 138 141 143 138 138 137 139 150 143 141 145 158 160 143 147 155 160 145 147 161 161 154 164 167 175 172 167 161 142 142 137 130 126 138 135 114 97 72 94 91 101 106 102 100 98 90 81 78 72 71 70 69 65 62 60 55 51 46 42 40 36 35
178 204 249 291 287 292 301 319 301 281 255 199 191 203 187 111 354 97 63 115 147 135 135 135 138 132 136 144 136 147 145 140 143 135 132 135 146 157 157 149 140 162 160 158 144 136 149 164 169 165 155 149 147 143 135 135 138 135 123 111 49 53 82 113 111 108 101 96 86 81 78 72 65 68 62 58 57 54 52 48 42 35 27 24 24
164 204 209 257 284 293 308 315 307 295 287 223 183 199 197 126 135 116 129 150 117 126 131 127 137 139 141 142 150 149 153 148 141 141 146 146 155 156 162 156 163 151 164 151 156 158 161 158 155 169 153 146 140 140 139 134 163 132 118 100 132 312 143 178 130 113 103 97 93 82 81 71 63 55 54 49 38 40 39 38 32 23 19 11 12
177 187 202 232 282 303 308 313 305 305 306 280 160 177 193 118 123 117 109 118 118 113 130 134 142 144 148 156 154 154 163 151 154 153 143 148 159 159 153 156 164 160 157 160 153 178 152 162 180 162 160 149 135 129 127 111 157 132 93 113 131 2 250 231 209 139 114 127 131 95 76 78 50 41 33 25 11 3 18 19 17 18 12 10 9
178 184 188 210 237 285 300 304 306 299 307 316 162 163 179 127 105 111 116 125 153 130 124 143 148 158 159 167 159 164 166 169 158 157 166 158 148 149 153 160 172 153 152 167 167 171 186 170 173 199 175 159 136 139 124 125 173 131 133 129 127 147 265 262 265 233 203 253 235 263 90 57 31 13 6 358 341 339 358 2 8 8 10 11 12
181 180 194 214 230 265 275 283 286 297 301 318 324 329 226 143 135 135 123 129 160 142 122 128 139 157 168 174 180 171 177 169 163 162 178 160 146 138 138 153 157 147 159 156 173 164 190 191 175 213 209 176 149 128 175 119 286 130 148 138 144 201 300 332 302 274 250 257 265 271 306 348 347 347 345 339 326 328 346 1 2 1 2 6 3
193 187 200 211 232 258 267 279 280 279 287 290 286 282 312 200 181 166 147 148 146 117 112 115 126 152 168 171 189 178 179 173 175 174 181 171 161 148 148 141 132 139 145 158 153 209 190 190 200 201 205 219 197 202 206 195 297 243 173 174 181 219 359 336 322 306 280 270 272 283 309 321 326 333 334 332 321 323 345 357 355 354 355 356 353
202 204 201 200 222 247 271 279 278 280 281 285 290 288 283 268 268 244 255 271 175 132 115 105 117 163 148 159 179 181 187 181 182 182 185 182 178 170 167 141 113 116 134 136 144 154 171 182 202 202 207 221 230 238 229 228 289 335 237 233 226 52 20 324 324 318 309 301 298 305 312 317 320 324 331 328 318 326 341 348 349 350 351 350 348
206 208 208 205 209 226 231 256 269 269 267 258 248 252 263 269 259 234 207 239 230 195 179 123 123 130 128 142 160 171 179 179 186 186 192 199 200 196 203 194 123 61 67 107 118 133 148 196 176 156 203 194 221 245 230 224 232 251 239 261 256 240 230 312 314 319 321 326 331 319 315 318 320 325 328 319 316 325 334 341 344 347 346 343 345
214 209 209 211 216 216 220 238 253 256 266 261 250 247 256 264 269 269 294 280 245 214 202 190 127 138 130 117 126 137 160 164 174 182 191 196 213 220 234 238 226 234 289 257 97 137 158 319 5 333 120 340 78 287 237 187 218 242 245 261 275 277 266 201 306 306 316 324 330 324 318 318 319 320 318 312 315 320 326 329 335 341 339 336 341
226 217 214 209 212 218 213 219 237 240 246 253 245 236 239 252 254 240 258 287 285 265 266 257 211 230 129 121 107 110 142 152 174 172 182 194 201 210 220 235 241 243 268 282 269 282 275 269 274 326 320 302 288 259 287 278 246 279 273 273 280 286 286 303 279 297 314 319 323 318 312 313 312 314 311 311 314 319 321 324 327 335 332 335 340
226 231 221 215 216 219 216 217 226 227 233 237 236 241 240 238 242 248 238 247 266 274 266 257 273 271 258 206 144 134 143 137 162 175 198 212 224 233 234 247 252 253 253 270 285 276 274 269 277 267 261 257 271 286 289 299 312 283 273 276 296 297 290 302 327 303 311 316 315 313 311 306 307 308 308 310 314 316 319 322 325 326 329 339 340
222 232 233 227 223 223 218 218 220 222 225 231 233 228 231 234 237 235 239 251 269 276 270 265 253 250 252 246 237 223 213 168 159 162 227 304 267 259 266 267 270 272 278 285 292 296 292 293 283 287 283 291 293 288 280 265 268 282 294 299 285 287 295 290 287 293 303 308 307 311 310 306 305 306 308 312 316 317 318 320 319 319 326 332 336
224 228 235 232 231 230 222 218 218 220 222 225 230 229 225 231 233 229 234 237 245 259 274 284 284 277 267 270 265 261 261 271 241 245 254 279 289 291 283 276 278 284 288 294 296 298 300 301 298 294 306 309 305 304 299 298 286 256 262 286 307 315 308 296 271 291 309 315 310 304 303 308 307 309 311 315 318 320 321 317 316 319 325 331 332
229 229 234 234 231 230 229 223 219 221 222 224 227 232 230 227 231 231 225 231 231 234 248 260 263 269 273 274 281 289 302 308 306 289 291 294 279 281 295 296 299 304 310 307 309 313 310 309 309 310 304 310 312 317 315 314 310 297 276 279 284 290 302 304 298 285 277 290 286 280 288 293 309 312 312 322 325 326 327 321 317 318 323 330 331
233 233 229 234 234 230 231 230 227 225 225 224 229 232 234 234 239 239 233 223 223 227 228 238 238 236 245 254 264 288 316 321 328 314 294 283 282 291 294 304 311 317 321 317 317 318 316 315 315 312 313 310 316 325 329 333 339 338 329 302 283 276 277 283 290 279 279 278 290 296 290 297 304 299 315 324 336 333 325 322 319 315 321 326 332
235 233 233 230 234 233 231 234 234 234 230 229 230 236 238 240 236 239 238 233 228 223 224 225 239 241 231 229 252 263 274 298 306 286 266 250 268 288 295 306 320 326 328 328 324 322 321 322 319 319 326 329 329 328 333 336 344 343 329 328 313 295 292 295 289 287 286 281 285 280 299 308 310 313 317 324 325 340 343 348 314 313 316 327 331
239 237 235 235 233 237 235 237 239 238 235 232 241 249 243 238 243 236 236 234 228 226 228 226 226 239 243 234 235 254 263 278 294 307 313 305 299 292 277 295 319 328 328 330 331 328 329 330 329 327 332 333 331 332 334 337 339 339 343 343 344 323 307 308 310 312 306 303 281 274 269 279 282 291 284 288 305 329 329 328 304 300 316 328 333
242 242 242 244 242 239 240 240 242 240 237 237 258 266 263 251 241 240 235 233 233 231 231 230 229 231 234 238 237 258 284 292 297 310 312 319 323 326 333 334 266 287 315 328 325 326 327 331 329 330 333 334 336 337 340 343 349 346 338 333 339 335 327 312 309 307 313 310 304 289 281 275 275 277 284 286 295 309 314 302 312 316 322 328 333
244 242 245 247 247 246 242 239 239 237 234 240 262 269 269 269 260 246 237 234 232 232 232 230 231 234 236 238 243 247 264 281 284 293 304 315 315 316 323 329 341 358 343 300 299 310 319 320 323 325 323 325 328 332 338 340 339 339 339 338 336 336 334 325 312 309 300 306 302 304 297 289 291 290 282 293 294 300 291 301 310 317 322 327 330
242 243 241 243 248 249 245 241 237 234 230 245 nan nan 271 272 271 260 241 234 232 228 230 233 232 234 238 242 242 247 246 275 282 283 282 292 308 320 317 320 325 330 337 349 344 317 298 306 315 317 317 314 322 326 327 326 323 333 332 335 333 333 331 329 323 313 304 303 306 310 307 294 297 298 296 299 303 301 300 307 312 316 320 324 328
242 243 243 242 242 244 246 244 240 235 232 239 264 269 nan nan nan 263 245 240 236 231 231 233 235 238 242 243 248 251 255 260 267 276 281 282 284 290 294 297 301 316 327 336 338 342 332 318 313 313 311 312 316 315 317 319 323 326 327 328 325 324 323 327 327 323 317 311 314 309 308 308 308 307 304 298 305 304 309 308 318 317 318 321 324
248 248 246 245 244 244 245 245 242 241 239 243 259 269 272 nan nan nan 250 245 240 239 241 241 240 239 241 246 249 252 255 261 264 272 274 278 281 283 289 295 298 300 306 313 317 314 314 318 322 320 313 312 313 315 314 314 318 319 320 321 316 310 307 312 323 326 324 320 322 317 315 306 303 303 304 303 305 308 305 309 318 320 318 319 321
246 247 250 249 249 249 249 247 243 241 238 254 263 267 271 272 272 259 256 252 249 244 244 246 246 248 249 251 252 255 258 261 269 278 276 272 274 281 286 288 290 294 298 306 307 309 310 310 313 316 315 318 312 308 299 301 308 310 311 312 311 309 310 315 319 316 322 319 321 320 314 306 302 302 299 300 301 307 309 313 317 320 319 318 320
251 249 248 250 251 251 253 254 251 244 241 253 266 271 273 275 268 261 261 257 253 251 247 248 251 254 257 259 261 259 263 265 272 281 284 283 277 277 278 281 283 286 291 293 306 312 311 311 307 306 302 296 292 294 297 295 294 291 297 304 309 309 312 315 314 314 317 315 317 320 317 310 304 303 302 301 302 308 313 313 310 318 320 319 319
257 256 254 250 249 251 254 257 257 253 249 255 270 274 278 281 279 269 265 262 258 255 252 255 256 257 261 272 267 266 266 267 275 283 286 286 284 282 280 281 285 290 291 288 285 298 315 316 319 319 311 305 303 303 302 301 301 297 305 308 305 304 311 311 312 310 307 309 311 312 315 314 306 304 303 301 301 306 309 310 308 309 314 316 320
259 258 256 252 253 253 251 252 255 259 254 255 272 277 280 283 281 268 267 262 260 258 257 257 261 261 263 269 286 282 274 270 276 283 289 288 286 284 284 285 290 295 292 287 290 292 295 300 299 301 300 302 302 301 304 312 309 304 305 306 301 303 305 306 308 308 310 310 311 310 311 311 309 308 305 302 304 304 308 305 305 308 311 312 313